Regional Weather Roundup
Issued by NWS

Home | Current Version | Previous Version | Text Only | Print | Product List | Glossary Off
Versions: 1 2 3 4 5 6 7 8 9 10 11 12 13 14 15 16 17 18 19 20 21 22 23 24 25 26 27 28 29 30 31 32 33 34 35 36 37 38 39 40 41 42 43 44 45 46 47 48 49 50

000
ASUS45 KBOU 300510
RWRCO

WEATHER ROUNDUP FOR COLORADO
NATIONAL WEATHER SERVICE DENVER/BOULDER CO
1100 PM MDT WED JUL 29 2015

NOTE: "FAIR" INDICATES FEW OR NO CLOUDS BELOW 12000 FEET WITH NO
SIGNIFICANT WEATHER AND/OR OBSTRUCTIONS TO VISIBILITY.

COZ001>005-013-030-031-300600-
...NORTHWEST COLORADO...

CITY           SKY/WX    TMP DP  RH WIND       PRES   REMARKS
CRAIG          CLEAR     51  30  44 CALM      30.35S
HAYDEN         CLEAR     57  23  26 SW7       30.37S
MEEKER         PTCLDY    56  30  37 E5        30.37R
MOUNT WERNER   NOT AVBL
STEAMBOAT SPGS CLEAR     56  31  38 CALM      30.40S
WALDEN         CLEAR     54  23  30 NW7       30.49S
$$

COZ006>008-011-300600-
...WEST CENTRAL VALLEYS...

CITY           SKY/WX    TMP DP  RH WIND       PRES   REMARKS
GRAND JUNCTION PTCLDY    72  27  18 S6        30.19S
MONTROSE       PTCLDY    67  38  34 SE9       30.30R
EAGLE          PTCLDY    63  34  34 E7        30.40R
RIFLE          PTCLDY    67  26  21 SE12      30.28R
DELTA          PTCLDY    72  33  24 CALM      30.25R
NUCLA          PTCLDY    68  30  24 E12       30.34R
$$

COZ017>023-064>068-300600-
...SOUTHWEST COLORADO...

CITY           SKY/WX    TMP DP  RH WIND       PRES   REMARKS
DURANGO        MOCLDY    62  48  60 CALM      30.40R
CORTEZ         CLEAR     65  44  46 CALM      30.32R
PAGOSA SPRINGS CLOUDY    59  47  64 CALM      30.48S
TELLURIDE      PTCLDY    60  33  35 SE5       30.58R
WOLF CREEK PAS NOT AVBL
$$

COZ009-010-012-014-032>034-037-058>063-300600-
...CENTRAL COLORADO...

CITY           SKY/WX    TMP DP  RH WIND       PRES   REMARKS
ASPEN          PTCLDY    53  38  56 SW3       30.46R
BUENA VISTA    MOCLDY    54  51  92 NE3       30.54S
COPPER MTN     CLEAR     54  27  35 W6        30.80S
BERTHOUD PASS  FAIR      43  34  70 W8        30.83S
COTTONWOOD PAS PTCLDY    54  46  76 CALM      30.66R
GUNNISON       NOT AVBL
KREMMLING      CLEAR     54  30  40 CALM      30.46R
LEADVILLE      PTCLDY    51  47  86 S3        30.63R
MONARCH PASS   FOG       46  45  93 NE15      30.89S VSB<1/4
SALIDA         NOT AVBL
SUNLIGHT       PTCLDY    59  19  21 NW3       30.71S
WILKERSON PASS MOCLDY    46  41  81 SW7       30.77R
$$

COZ069>075-300600-
...SAN LUIS VALLEY/SANGRE DE CRISTO MOUNTAINS...

CITY           SKY/WX    TMP DP  RH WIND       PRES   REMARKS
ALAMOSA        CLOUDY    58  49  72 S5        30.46S
LA VETA PASS   CLOUDY    54  39  58 MISG      30.65S
SAGUACHE       PTCLDY    55  48  76 E5        30.53S
$$

COZ035-036-038>040-300600-
...NORTHERN COLORADO FRONT RANGE...

CITY           SKY/WX    TMP DP  RH WIND       PRES   REMARKS
DENVER INTL AP MOCLDY    68  48  48 S12       30.30R
DMNS CITY PARK   N/A     71  49  45 SE9       30.28F
AURORA         MOCLDY    70  51  51 S10       30.32S
FRONT RANGE AP NOT AVBL
ERIE MUNI ARPT PTCLDY    67  56  68 SW3       30.27S
BOULDER MUN AP PTCLDY    70  52  52 CALM      30.27F
CENTENNIAL     MOCLDY    71  50  47 S14       30.33S
BROOMFIELD     NOT AVBL
FORT COLLINS   PTCLDY    68  48  49 S6        30.28R
LONGMONT       PTCLDY    66  54  64 NW6       30.28S
$$

COZ041-046-047-076>085-087-088-300600-
...PIKES PEAK/PALMER DIVIDE AND SOUTHERN FOOTHILLS...

CITY           SKY/WX    TMP DP  RH WIND       PRES   REMARKS
COLO. SPRINGS  MOCLDY    68  49  50 SE7       30.41R
A. F. ACADEMY  MOCLDY    65  48  54 SE7       30.42R
ELLICOTT       MOCLDY   N/A N/A N/A SE8       30.39R
FALCON         MOCLDY    61  47  60 S3        30.46R
FORT CARSON    MOCLDY    69  53  57 NE3       30.37R
LIMON          PTCLDY    62  50  64 SE8       30.36R
MONUMENT HILL  NOT AVBL
TRINIDAD       CLOUDY    63  53  70 SW14      30.35F
$$

COZ042>045-048>051-090-091-300600-
...NORTHEAST COLORADO...

CITY           SKY/WX    TMP DP  RH WIND       PRES   REMARKS
GREELEY ARPT   PTCLDY    70  48  46 E7        30.27R
AKRON          CLEAR     62  49  62 SE10      30.31S
BURLINGTON     PTCLDY    63  53  70 SE9       30.31S
WRAY           CLEAR     66  47  49 SE10      30.28S
STERLING       CLEAR     70  46  43 S12       30.25S
HOLYOKE        CLEAR     63  50  63 S8        30.28S
FORT MORGAN    CLEAR     67  46  46 SE10G18   30.28S
$$

COZ086-089-092>099-300600-
...SOUTHEAST COLORADO...

CITY           SKY/WX    TMP DP  RH WIND       PRES   REMARKS
PUEBLO         MOCLDY    75  51  43 SE6       30.27S
LA JUNTA       CLOUDY    76  54  46 SE7       30.28R
LAMAR          CLOUDY    71  61  70 E7        30.25S
SPRINGFIELD      N/A     66  63  90 SE7       30.31S
$$



USA.gov is the U.S. government's official web portal to all federal, state and local government web resources and services.